View from above orbital plane
|
View from above satellite
|
Ground track
|
The orbit data is extracted from the following two-line orbital elements,
1 17528U 87018B 21110.47088484 .00000169 00000-0 46382-4 0 9998
2 17528 97.4067 289.3163 0150595 219.3015 139.7176 14.51046098782746
Epoch (UTC): | 20 April 2021 11:18:04 |
Eccentricity: | 0.0150595 |
inclination: | 97.4067° |
perigee height: | 615 km |
apogee height: | 829 km |
right ascension of ascending node: | 289.3163° |
argument of perigee: | 219.3015° |
revolutions per day: | 14.51046098 |
mean anomaly at epoch: | 139.7176° |
orbit number at epoch: | 78274 |
The dashed part of the orbit path shows where the satellite is in the earth's shadow,
|
|